Weather History for KYKM - August, 2013

Change the Weather History Date:

Friday, August 2, 2013

  Actual Average Record
Temperature  
Mean Temperature 70 °F 72 °F  
Max Temperature 79 °F 90 °F 100 °F (1961)
Min Temperature 60 °F 54 °F 39 °F (1956)
Degree Days  
Heating Degree Days 0 0  
Month to date heating degree days 0 0  
Since 1 June heating degree days 39 119  
Since 1 July heating degree days 0 21  
Cooling Degree Days 5 7  
Month to date cooling degree days 13 14  
Year to date cooling degree days 576 294  
Since 1 June cooling degree days 524 274  
Growing Degree Days 20 (Base 50)    
Moisture  
Dew Point 51 °F    
Average Humidity 56    
Maximum Humidity 72    
Minimum Humidity 40    
Precipitation  
Precipitation 0.00 in 0.00 in 0.30 in (1949)
Month to date precipitation 0.00 0.01  
Year to date precipitation 4.17 4.52  
Snow  
Snow 0.00 in 0.00 in 0.00 in (2002)
Month to date snowfall 0.0 0.0  
Year to date snowfall 1.1 8.6  
Since 1 July snowfall 0.0 0.0  
Snow Depth 0.00 in    
Sea Level Pressure  
Sea Level Pressure 29.99 in    
Wind  
Wind Speed 4 mph (North)    
Max Wind Speed 13 mph    
Max Gust Speed 16 mph    
Visibility 10 miles    
Events      
T = Trace of Precipitation, MM = Missing Value Source: NWS Daily Summary

Daily Weather History Graph

Daily Weather History Graph

Search for Another Location

Airport or City:

Trip Planner

Search our weather history database for the weather conditions in past years. The results will help you decide how hot, cold, wet, or windy it might be!

Date:

Astronomy

Aug. 02, 2013 Rise Set
Actual Time 5:44 AM PDT 8:31 PM PDT
Civil Twilight 5:09 AM PDT 9:06 PM PDT
Nautical Twilight 4:25 AM PDT 9:50 PM PDT
Astronomical Twilight 3:32 AM PDT 10:42 PM PDT
Moon 2:06 AM PDT (8/2) 5:35 PM PDT (8/2)
Length of Visible Light 15h 56m
Length of Day
14h 46m
Waning Crescent, 15% of the Moon is Illuminated
Aug 2
Waning Crescent
Aug 6
New
Aug 14
First Quarter
Aug 20
Full
Aug 28
Last Quarter

Hourly Weather History & Observations

Time (PDT) Temp. Dew Point Humidity Pressure Visibility Wind Dir Wind Speed Gust Speed Precip Events Conditions
12:53 AM 66.9 °F 48.9 °F 52% 29.94 in 10.0 mi WNW 9.2 mph - N/A   Clear
1:53 AM 64.0 °F 50.0 °F 60% 29.94 in 10.0 mi West 4.6 mph - N/A   Clear
2:53 AM 64.9 °F 48.9 °F 56% 29.94 in 10.0 mi NW 9.2 mph - N/A   Partly Cloudy
3:53 AM 62.1 °F 50.0 °F 65% 29.95 in 10.0 mi Variable 3.5 mph - N/A   Clear
4:53 AM 61.0 °F 51.1 °F 70% 29.95 in 10.0 mi Calm Calm - N/A   Clear
5:53 AM 64.9 °F 48.9 °F 56% 29.95 in 10.0 mi NW 8.1 mph - N/A   Partly Cloudy
6:53 AM 66.0 °F 48.9 °F 54% 29.97 in 10.0 mi NNW 5.8 mph - N/A   Clear
7:53 AM 66.9 °F 48.9 °F 52% 29.99 in 10.0 mi Calm Calm - N/A   Clear
8:53 AM 69.1 °F 50.0 °F 51% 30.00 in 10.0 mi North 3.5 mph - N/A   Clear
9:53 AM 69.1 °F 51.1 °F 53% 30.01 in 10.0 mi ENE 4.6 mph - N/A   Scattered Clouds
10:53 AM 71.1 °F 51.1 °F 49% 30.01 in 10.0 mi Calm Calm - N/A   Scattered Clouds
11:53 AM 75.0 °F 51.1 °F 43% 30.00 in 10.0 mi Calm Calm - N/A   Scattered Clouds
12:53 PM 75.9 °F 52.0 °F 43% 29.99 in 10.0 mi NNW 9.2 mph - N/A   Partly Cloudy
1:53 PM 75.0 °F 52.0 °F 44% 30.00 in 10.0 mi ENE 3.5 mph - N/A   Scattered Clouds
2:53 PM 75.0 °F 53.1 °F 46% 29.99 in 10.0 mi ESE 4.6 mph - N/A   Overcast
3:53 PM 77.0 °F 52.0 °F 42% 29.98 in 10.0 mi East 4.6 mph - N/A   Overcast
4:53 PM 77.0 °F 54.0 °F 45% 29.98 in 10.0 mi SSE 8.1 mph - N/A   Mostly Cloudy
5:53 PM 77.0 °F 53.1 °F 43% 29.98 in 10.0 mi South 8.1 mph - N/A   Mostly Cloudy
6:53 PM 77.0 °F 52.0 °F 42% 29.97 in 10.0 mi Calm Calm - N/A   Mostly Cloudy
7:53 PM 73.9 °F 52.0 °F 46% 29.99 in 10.0 mi North 9.2 mph - N/A   Overcast
8:53 PM 70.0 °F 51.1 °F 51% 30.01 in 10.0 mi Calm Calm - N/A   Mostly Cloudy
9:53 PM 69.1 °F 51.1 °F 53% 30.02 in 10.0 mi Calm Calm - N/A   Clear
10:53 PM 68.0 °F 51.1 °F 55% 30.04 in 10.0 mi NNE 4.6 mph - N/A   Partly Cloudy
11:53 PM 66.9 °F 50.0 °F 54% 30.04 in 10.0 mi NNE 6.9 mph - N/A   Partly Cloudy